sat.trackr.live / text

‹ back to catalog

STARLINK-30908

NORAD 58424 · 2023-180Y

PAYLOAD ACTIVE UNKNOWN

§ Identity

Operator
Country
US
Launch date
2023-11-22
Launch site
AFETR
Launch vehicle
Mass (kg)
RCS (m²)

Purposes: comms

External: N2YO · Heavens-Above · Gunter

§ Orbital elements

Epoch: 2026-05-24T21:47:06.177696Z

Period
94.27 min
Inclination
43.0034°
Eccentricity
0.0000990
Mean motion
15.27576834 rev/d
Perigee alt
482.4 km
Apogee alt
483.7 km
Semi-major
6,861.2 km
B*
3.8356e-5
RAAN
341.9231°
Arg perigee
273.3322°
Mean anomaly
86.7417°
Rev number
13,928

§ Raw data

STARLINK-309081 58424U 23180Y   26144.90771039  .00000793  00000+0  38356-4 0  99972 58424  43.0034 341.9231 0000990 273.3322  86.7417 15.27576834139286

JSON: /api/v1/satellites/58424 · /tle

For live sub-satellite position, see the globe view (requires WebGL).

§ Visibility from observer

Set your observer location to see the next 7 days of passes ≥ 10°. The values pass through the URL so the page stays shareable.

No JS? Fill the form by hand. The geolocation button needs JavaScript.